AG7BI Weather Reports


Display with metric or nautical units.
time (UTC)temp
F
wind
direction
speed
MPH
gust
MPH
rain 1hr
in
rain 24hr
in
rain mn
in
humidity
%
barometer
mb
20260505052552 53 0 0.0 2.0 0.00 0.00 0.00 81 1011.5
20260505052052 53 126 1.0 3.0 0.00 0.00 0.00 81 1011.3
20260505051552 53 156 1.0 1.0 0.00 0.00 0.00 81 1011.3
20260505051052 53 172 1.0 2.0 0.00 0.00 0.00 80 1011.0
20260505050552 53 172 1.0 1.0 0.00 0.00 0.00 80 1011.0
20260505041552 57 150 1.0 2.0 0.00 0.00 0.00 76 1010.8
20260505041052 58 213 1.0 1.0 0.00 0.00 0.00 75 1010.5
20260505040552 58 175 1.0 1.0 0.00 0.00 0.00 75 1010.5
20260505040052 58 124 1.0 2.0 0.00 0.00 0.00 74 1010.5
20260505035552 58 144 1.0 1.0 0.00 0.00 0.00 73 1010.2
20260505035052 59 132 1.0 2.0 0.00 0.00 0.00 73 1010.2
20260505034552 59 166 1.0 1.0 0.00 0.00 0.00 71 1010.1
20260505034052 59 0 0.0 1.0 0.00 0.00 0.00 71 1010.0
20260505033552 60 169 1.0 1.0 0.00 0.00 0.00 70 1010.3
20260505033052 60 212 1.0 1.0 0.00 0.00 0.00 69 1010.0
20260505032552 61 0 0.0 1.0 0.00 0.00 0.00 68 1010.3
20260505032052 61 0 0.0 1.0 0.00 0.00 0.00 67 1010.1
20260505031552 62 0 0.0 1.0 0.00 0.00 0.00 66 1009.9
20260505031052 62 158 1.0 2.0 0.00 0.00 0.00 66 1009.9
20260505030552 63 0 0.0 2.0 0.00 0.00 0.00 65 1009.7
20260505030052 64 135 1.0 1.0 0.00 0.00 0.00 65 1009.7
20260505025552 64 176 2.0 2.0 0.00 0.00 0.00 62 1009.6
20260505025052 64 151 1.0 2.0 0.00 0.00 0.00 61 1009.7
20260505024552 65 0 0.0 2.0 0.00 0.00 0.00 60 1009.7
20260505024052 65 0 0.0 1.0 0.00 0.00 0.00 59 1009.7
20260505023552 66 171 2.0 2.0 0.00 0.00 0.00 58 1009.7
20260505023052 66 178 1.0 1.0 0.00 0.00 0.00 56 1009.5
20260505022552 66 168 1.0 1.0 0.00 0.00 0.00 55 1009.4
20260505022052 66 146 1.0 1.0 0.00 0.00 0.00 54 1009.6
20260505021552 66 182 1.0 1.0 0.00 0.00 0.00 52 1009.6
20260505021052 67 171 1.0 1.0 0.00 0.00 0.00 51 1009.5
20260505020552 67 196 1.0 1.0 0.00 0.00 0.00 50 1009.6
20260505020052 67 173 1.0 2.0 0.00 0.00 0.00 49 1009.5
20260505015552 67 168 1.0 1.0 0.00 0.00 0.00 50 1009.6
20260505015052 68 0 0.0 2.0 0.00 0.00 0.00 48 1009.6
20260505014552 68 0 0.0 1.0 0.00 0.00 0.00 49 1009.6
20260505014052 68 141 1.0 1.0 0.00 0.00 0.00 48 1009.8
20260505013552 68 134 1.0 1.0 0.00 0.00 0.00 50 1009.7
20260505013052 68 171 1.0 2.0 0.00 0.00 0.00 48 1009.8
20260505012552 68 208 1.0 1.0 0.00 0.00 0.00 49 1009.7
20260505012052 69 0 0.0 1.0 0.00 0.00 0.00 48 1009.7
20260505011552 69 154 1.0 2.0 0.00 0.00 0.00 50 1009.9
20260505011052 69 0 0.0 1.0 0.00 0.00 0.00 49 1009.8
20260505010552 69 203 2.0 2.0 0.00 0.00 0.00 47 1009.8
20260505010052 70 0 0.0 1.0 0.00 0.00 0.00 49 1009.8
20260505005552 70 0 0.0 1.0 0.00 0.00 0.00 47 1009.8
20260505005052 70 0 0.0 0.0 0.00 0.00 0.00 48 1009.8
20260505004552 71 0 0.0 1.0 0.00 0.00 0.00 48 1009.8
20260505004052 71 0 0.0 1.0 0.00 0.00 0.00 48 1009.7
20260505003552 71 0 0.0 2.0 0.00 0.00 0.00 49 1009.8
20260505003052 71 0 0.0 1.0 0.00 0.00 0.00 51 1009.8
20260505002552 70 0 0.0 1.0 0.00 0.00 0.00 53 1009.6
20260505002052 71 0 0.0 1.0 0.00 0.00 0.00 52 1009.6
20260505001552 70 156 1.0 2.0 0.00 0.00 0.00 53 1009.9
20260505001052 70 161 1.0 2.0 0.00 0.00 0.00 53 1009.6
20260505000552 71 238 1.0 1.0 0.00 0.00 0.00 56 1009.7
20260505000052 71 157 1.0 2.0 0.00 0.00 0.00 54 1009.6
20260504235552 71 0 0.0 1.0 0.00 0.00 0.00 56 1009.7
20260504235052 71 0 0.0 1.0 0.00 0.00 0.00 55 1009.6
20260504234552 72 0 0.0 1.0 0.00 0.00 0.00 54 1009.7
20260504234052 72 0 0.0 1.0 0.00 0.00 0.00 56 1009.6
20260504233552 72 149 2.0 2.0 0.00 0.00 0.00 56 1009.7
20260504233052 73 236 1.0 1.0 0.00 0.00 0.00 54 1009.7
20260504232552 72 277 2.0 2.0 0.00 0.00 0.00 51 1009.8
20260504232052 73 214 1.0 2.0 0.00 0.00 0.00 52 1009.6
20260504231552 73 187 1.0 2.0 0.00 0.00 0.00 52 1009.7
20260504231052 73 171 1.0 2.0 0.00 0.00 0.00 52 1009.6
20260504230552 73 249 2.0 2.0 0.00 0.00 0.00 52 1009.6
20260504230052 73 0 0.0 1.0 0.00 0.00 0.00 53 1009.7
20260504225552 73 0 0.0 1.0 0.00 0.00 0.00 48 1009.6
20260504225052 73 242 1.0 2.0 0.00 0.00 0.00 49 1009.6
20260504224552 73 240 1.0 2.0 0.00 0.00 0.00 49 1009.8
20260504224052 74 250 2.0 2.0 0.00 0.00 0.00 49 1009.9
20260504223552 74 184 1.0 1.0 0.00 0.00 0.00 50 1009.9
20260504223052 74 0 0.0 1.0 0.00 0.00 0.00 42 1009.8
20260504222552 74 30 1.0 1.0 0.00 0.00 0.00 43 1009.9
20260504222052 73 0 0.0 2.0 0.00 0.00 0.00 44 1010.0
20260504221552 73 0 0.0 1.0 0.00 0.00 0.00 45 1009.9
20260504221052 72 0 0.0 1.0 0.00 0.00 0.00 51 1010.1
20260504220552 72 199 1.0 1.0 0.00 0.00 0.00 47 1010.2
20260504220052 72 242 1.0 1.0 0.00 0.00 0.00 49 1010.3
20260504215552 72 0 0.0 2.0 0.00 0.00 0.00 50 1010.4
20260504215052 72 207 1.0 1.0 0.00 0.00 0.00 52 1010.6
20260504214552 71 190 1.0 2.0 0.00 0.00 0.00 51 1010.5
20260504214052 70 174 1.0 2.0 0.00 0.00 0.00 52 1010.3
20260504213552 70 0 0.0 2.0 0.00 0.00 0.00 56 1010.4
20260504213052 70 257 2.0 2.0 0.00 0.00 0.00 53 1010.4
20260504212552 70 0 0.0 1.0 0.00 0.00 0.00 57 1010.5
20260504212052 70 142 1.0 2.0 0.00 0.00 0.00 56 1010.7
20260504211552 70 0 0.0 0.0 0.00 0.00 0.00 53 1010.6
20260504211052 70 220 1.0 1.0 0.00 0.00 0.00 53 1010.8
20260504210552 70 140 1.0 2.0 0.00 0.00 0.00 55 1010.6
20260504210052 69 0 0.0 1.0 0.00 0.00 0.00 55 1010.8
20260504205552 69 131 1.0 1.0 0.00 0.00 0.00 55 1010.8
20260504205052 69 146 1.0 2.0 0.00 0.00 0.00 50 1010.9
20260504204552 69 0 0.0 1.0 0.00 0.00 0.00 50 1010.7
20260504204052 69 0 0.0 1.0 0.00 0.00 0.00 53 1010.8
20260504203552 69 0 0.0 1.0 0.00 0.00 0.00 50 1010.8
20260504203052 69 0 0.0 2.0 0.00 0.00 0.00 51 1010.8
20260504202552 69 145 1.0 2.0 0.00 0.00 0.00 52 1010.6
20260504202052 70 127 1.0 2.0 0.00 0.00 0.00 46 1010.7
20260504201552 70 164 2.0 3.0 0.00 0.00 0.00 45 1010.8
20260504201052 71 187 1.0 2.0 0.00 0.00 0.00 51 1010.9
20260504200552 72 164 1.0 2.0 0.00 0.00 0.00 50 1011.0
20260504200052 72 186 1.0 1.0 0.00 0.00 0.00 48 1011.1
20260504195552 73 228 1.0 1.0 0.00 0.00 0.00 47 1011.0
20260504195052 72 0 0.0 1.0 0.00 0.00 0.00 51 1010.9
20260504194552 74 122 2.0 2.0 0.00 0.00 0.00 45 1010.8
20260504194052 72 269 1.0 1.0 0.00 0.00 0.00 42 1010.7
20260504193552 73 0 0.0 1.0 0.00 0.00 0.00 48 1010.7
20260504193052 74 115 2.0 2.0 0.00 0.00 0.00 44 1010.7
20260504192552 72 0 0.0 1.0 0.00 0.00 0.00 50 1010.9
20260504192052 72 0 0.0 1.0 0.00 0.00 0.00 52 1010.9
20260504191552 72 0 0.0 1.0 0.00 0.00 0.00 47 1011.0
20260504191052 71 0 0.0 1.0 0.00 0.00 0.00 56 1011.1
20260504190552 70 137 2.0 3.0 0.00 0.00 0.00 52 1011.1
20260504190052 69 113 1.0 1.0 0.00 0.00 0.00 54 1011.1
20260504185552 69 142 1.0 1.0 0.00 0.00 0.00 53 1011.2
20260504185052 68 179 1.0 1.0 0.00 0.00 0.00 55 1011.1
20260504184552 68 114 1.0 1.0 0.00 0.00 0.00 54 1011.4
20260504184052 68 131 1.0 2.0 0.00 0.00 0.00 55 1011.4
20260504183552 68 88 1.0 1.0 0.00 0.00 0.00 55 1011.4
20260504183052 68 149 1.0 2.0 0.00 0.00 0.00 54 1011.4
20260504182552 68 150 1.0 1.0 0.00 0.00 0.00 55 1011.4
20260504182052 68 0 0.0 1.0 0.00 0.00 0.00 55 1011.1
20260504181552 69 155 1.0 2.0 0.00 0.00 0.00 54 1011.1
20260504181052 69 156 1.0 2.0 0.00 0.00 0.00 54 1011.0
20260504180552 69 0 0.0 1.0 0.00 0.00 0.00 55 1011.2
20260504180052 68 179 1.0 1.0 0.00 0.00 0.00 59 1011.1
20260504175552 68 130 1.0 1.0 0.00 0.00 0.00 58 1011.1
20260504175052 67 153 1.0 1.0 0.00 0.00 0.00 57 1011.0
20260504174552 67 142 1.0 2.0 0.00 0.00 0.00 60 1011.2
20260504174052 67 198 1.0 1.0 0.00 0.00 0.00 56 1011.1
20260504173552 66 140 1.0 1.0 0.00 0.00 0.00 61 1011.2
20260504173052 66 0 0.0 1.0 0.00 0.00 0.00 60 1011.2
20260504172552 66 177 1.0 2.0 0.00 0.00 0.00 57 1011.3
20260504172052 66 0 0.0 1.0 0.00 0.00 0.00 58 1011.2
20260504171552 65 151 1.0 1.0 0.00 0.00 0.00 61 1011.3
20260504171052 64 130 1.0 1.0 0.00 0.00 0.00 59 1011.1
20260504170552 63 138 2.0 3.0 0.00 0.00 0.00 59 1011.2
20260504151052 56 145 2.0 2.0 0.00 0.00 0.00 75 1011.0
20260504150552 56 140 2.0 2.0 0.00 0.00 0.00 72 1010.8
20260504141052 52 166 1.0 1.0 0.00 0.00 0.00 78 1010.4
20260504140552 51 149 1.0 2.0 0.00 0.00 0.00 78 1010.6
20260504130552 49 152 2.0 2.0 0.00 0.00 0.00 79 1010.1
20260504110552 51 157 1.0 1.0 0.00 0.00 0.00 74 1010.1
20260504100552 51 0 0.0 1.0 0.00 0.00 0.00 73 1010.3
20260504081552 55 0 0.0 1.0 0.00 0.00 0.00 59 1009.7
20260504081052 55 122 1.0 1.0 0.00 0.00 0.00 59 1009.8
20260504080552 56 162 2.0 2.0 0.00 0.00 0.00 59 1009.8